User: anonymous   Login
Location: Caltech
(34.1382°N, 118.1253°W)
Time: 12:57:20
(UTC-07:00)
Language:

Cosmos 1626 - Orbit

View from above orbital plane
View from above orbital plane
View from above satellite
View from above satellite

Ground track
Ground track

The orbit data is extracted from the following two-line orbital elements,

1 15494U 85009A   14304.09591221  .00008986  00000-0  46273-3 0  7013
2 15494 082.4800 127.0739 0003268 139.5915 356.2564 15.16274814622907
Epoch (UTC): 31 October 2014 02:18:06
Eccentricity: 0.0003268
inclination: 82.4800°
perigee height: 515 km
apogee height: 519 km
right ascension of ascending node: 127.0739°
argument of perigee: 139.5915°
revolutions per day: 15.16274814
mean anomaly at epoch: 356.2564°
orbit number at epoch: 62290

The dashed part of the orbit path shows where the satellite is in the earth's shadow,  

DLR